SCOT15 YBOK-YBOK

Flight info

Callsign SCOT15
Flight time 0h 20m
Altitude 4500
Route DCT OK OK DCT
Aircraft EC35/L-VGD/C

Departure

Time 2026-04-19 11:21
Airport Oakey Army Aviation Centre (YBOK)

Arrival

Time 2026-04-19 11:42
Airport Oakey Army Aviation Centre (YBOK)
Time Latitude Longitude Altitude Speed Heading
2026-04-19 11:06 -27.41422 151.73770 1336 ft 0 kts 99°
2026-04-19 11:17 -27.41416 151.73780 1348 ft 8 kts 25°
2026-04-19 11:17 -27.41336 151.73771 1340 ft 11 kts 311°
2026-04-19 11:18 -27.41275 151.73758 1349 ft 17 kts 313°
2026-04-19 11:18 -27.41251 151.73618 1340 ft 16 kts 284°
2026-04-19 11:18 -27.41234 151.73511 1342 ft 12 kts 283°
2026-04-19 11:18 -27.41221 151.73430 1344 ft 10 kts 281°
2026-04-19 11:19 -27.41204 151.73308 1347 ft 22 kts 281°
2026-04-19 11:19 -27.41171 151.73087 1383 ft 39 kts 282°
2026-04-19 11:19 -27.41115 151.72719 1363 ft 47 kts 287°
2026-04-19 11:19 -27.41036 151.72476 1355 ft 24 kts
2026-04-19 11:20 -27.40931 151.72556 1352 ft 31 kts 109°
2026-04-19 11:20 -27.40988 151.72910 1370 ft 61 kts 95°
2026-04-19 11:20 -27.41064 151.73458 1410 ft 78 kts 96°
2026-04-19 11:20 -27.41158 151.74055 1511 ft 81 kts 97°
2026-04-19 11:21 -27.41268 151.74723 1665 ft 91 kts 97°
2026-04-19 11:21 -27.41341 151.75447 1836 ft 94 kts 86°
2026-04-19 11:21 -27.41175 151.76199 1948 ft 101 kts 70°
2026-04-19 11:22 -27.40943 151.76721 2054 ft 103 kts 63°
2026-04-19 11:27 -27.40835 151.76919 2073 ft 105 kts 62°
2026-04-19 11:27 -27.40403 151.77693 1903 ft 129 kts 60°
2026-04-19 11:27 -27.39934 151.78539 1989 ft 123 kts 60°
2026-04-19 11:27 -27.39649 151.79038 2048 ft 119 kts 61°
2026-04-19 11:28 -27.39496 151.79304 2071 ft 119 kts 61°
2026-04-19 11:28 -27.39055 151.80076 2154 ft 116 kts 60°
2026-04-19 11:28 -27.38622 151.80845 2233 ft 116 kts 60°
2026-04-19 11:29 -27.38188 151.81610 2318 ft 116 kts 60°
2026-04-19 11:29 -27.37762 151.82375 2397 ft 115 kts 60°
2026-04-19 11:29 -27.37334 151.83132 2484 ft 115 kts 60°
2026-04-19 11:29 -27.36912 151.83891 2573 ft 113 kts 59°
2026-04-19 11:30 -27.36515 151.84611 2767 ft 104 kts 60°
2026-04-19 11:30 -27.36141 151.85287 2933 ft 100 kts 57°
2026-04-19 11:30 -27.35766 151.85947 3019 ft 104 kts 57°
2026-04-19 11:30 -27.35343 151.86658 3054 ft 112 kts 57°
2026-04-19 11:31 -27.34658 151.86879 3007 ft 114 kts 349°
2026-04-19 11:31 -27.33942 151.86470 3015 ft 117 kts 337°
2026-04-19 11:31 -27.33223 151.86023 3033 ft 120 kts 337°
2026-04-19 11:31 -27.32468 151.85561 3033 ft 126 kts 337°
2026-04-19 11:32 -27.31711 151.85057 3003 ft 126 kts 328°
2026-04-19 11:32 -27.31187 151.84292 2976 ft 125 kts 296°
2026-04-19 11:32 -27.31007 151.83345 2999 ft 125 kts 283°
2026-04-19 11:32 -27.30850 151.82360 3007 ft 130 kts 283°
2026-04-19 11:33 -27.30686 151.81345 3008 ft 134 kts 283°
2026-04-19 11:33 -27.30515 151.80301 3005 ft 137 kts 283°
2026-04-19 11:33 -27.30336 151.79245 2992 ft 137 kts 283°
2026-04-19 11:33 -27.30161 151.78200 2990 ft 135 kts 283°
2026-04-19 11:34 -27.29990 151.77173 2992 ft 132 kts 283°
2026-04-19 11:34 -27.29823 151.76161 2999 ft 132 kts 283°
2026-04-19 11:34 -27.29655 151.75143 3000 ft 133 kts 283°
2026-04-19 11:34 -27.29491 151.74121 3000 ft 132 kts 284°
2026-04-19 11:35 -27.29328 151.73105 2999 ft 131 kts 283°
2026-04-19 11:35 -27.29163 151.72094 2999 ft 132 kts 283°
2026-04-19 11:35 -27.28995 151.71078 3000 ft 132 kts 283°
2026-04-19 11:35 -27.28860 151.70072 2984 ft 127 kts 267°
2026-04-19 11:36 -27.29244 151.69203 2998 ft 125 kts 239°
2026-04-19 11:36 -27.29689 151.68354 3004 ft 127 kts 239°
2026-04-19 11:36 -27.30144 151.67494 3006 ft 129 kts 240°
2026-04-19 11:36 -27.30598 151.66629 3004 ft 131 kts 240°
2026-04-19 11:37 -27.31065 151.65745 3000 ft 132 kts 240°
2026-04-19 11:37 -27.31534 151.64854 2997 ft 132 kts 240°
2026-04-19 11:37 -27.32005 151.63960 2992 ft 133 kts 240°
2026-04-19 11:37 -27.32499 151.63097 2995 ft 129 kts 229°
2026-04-19 11:38 -27.33201 151.62503 3007 ft 126 kts 204°
2026-04-19 11:38 -27.34044 151.62289 3029 ft 125 kts 178°
2026-04-19 11:38 -27.34882 151.62488 3049 ft 123 kts 152°
2026-04-19 11:38 -27.35585 151.63039 3047 ft 125 kts 136°
2026-04-19 11:39 -27.36263 151.63675 3033 ft 127 kts 135°
2026-04-19 11:39 -27.36902 151.64364 3030 ft 129 kts 131°
2026-04-19 11:39 -27.37551 151.65080 3030 ft 131 kts 131°
2026-04-19 11:39 -27.38200 151.65802 3025 ft 131 kts 132°
2026-04-19 11:40 -27.38853 151.66531 3022 ft 131 kts 132°
2026-04-19 11:40 -27.39505 151.67246 2939 ft 131 kts 131°
2026-04-19 11:40 -27.40159 151.68000 2468 ft 131 kts 120°
2026-04-19 11:40 -27.40422 151.68866 2262 ft 109 kts 95°
2026-04-19 11:41 -27.40516 151.69719 2067 ft 110 kts 95°
2026-04-19 11:41 -27.40624 151.70561 1806 ft 100 kts 98°
2026-04-19 11:41 -27.40736 151.71268 1647 ft 88 kts 96°
2026-04-19 11:41 -27.40831 151.71936 1507 ft 88 kts 96°
2026-04-19 11:42 -27.40928 151.72599 1401 ft 81 kts 96°
2026-04-19 11:42 -27.41002 151.73015 1357 ft 28 kts 95°
2026-04-19 11:42 -27.41031 151.73193 1351 ft 21 kts 89°
2026-04-19 11:42 -27.41049 151.73359 1348 ft 21 kts 89°
2026-04-19 11:43 -27.41073 151.73486 1344 ft 4 kts 169°
2026-04-19 11:43 -27.41107 151.73486 1342 ft 12 kts 198°
2026-04-19 11:43 -27.41212 151.73463 1348 ft 10 kts 139°
2026-04-19 11:43 -27.41235 151.73536 1351 ft 15 kts 102°
2026-04-19 11:44 -27.41257 151.73662 1350 ft 16 kts 95°
2026-04-19 11:44 -27.41270 151.73744 1345 ft 6 kts 139°
2026-04-19 11:44 -27.41316 151.73753 1342 ft 9 kts 186°
2026-04-19 11:44 -27.41394 151.73738 1344 ft 12 kts 190°
2026-04-19 11:45 -27.41435 151.73745 1351 ft 6 kts 68°
2026-04-19 11:45 -27.41429 151.73770 1344 ft 1 kts 310°
2026-04-19 11:45 -27.41426 151.73769 1345 ft 1 kts 288°
2026-04-19 11:45 -27.41421 151.73764 1343 ft 0 kts 277°
2026-04-19 11:46 -27.41421 151.73765 1345 ft 2 kts 278°
2026-04-19 11:46 -27.41421 151.73762 1342 ft 1 kts 282°
2026-04-19 11:47 -27.41420 151.73763 1340 ft 0 kts 281°